Wetterdaten: aktuell Dienstag, 04.12.2018 06:15
Datum Zeit Temp. I. Temp. A. Temp. 2 Feuchte I. Feuchte A. Luftdruck Regen Wind Richtung Richtung Taupunkt Windben
04.12.2018 06:15 20,6 C 9,6 C 9,1 C 67 % 48 % 1013,8 hPa 3,4 l/m 0,0 km/h N 360 8,2 C 0,0 km/h
04.12.2018 06:11 20,6 C 9,9 C 9,2 C 67 % 48 % 1013,8 hPa 0,0 l/m 0,0 km/h N 360 8,3 C 0,0 km/h
04.12.2018 05:59 20,6 C 9,9 C 9,2 C 67 % 48 % 1013,4 hPa 4,1 l/m 0,0 km/h N 360 8,3 C 0,0 km/h
04.12.2018 05:54 20,6 C 10,0 C 9,2 C 67 % 48 % 1013,4 hPa 1,4 l/m 0,0 km/h N 360 8,4 C 0,0 km/h
04.12.2018 05:49 20,6 C 10,0 C 9,3 C 67 % 48 % 1013,4 hPa 0,7 l/m 0,0 km/h N 360 8,4 C 0,0 km/h
04.12.2018 05:44 20,6 C 10,1 C 9,3 C 67 % 48 % 1013,4 hPa 0,0 l/m 0,0 km/h N 360 8,7 C 0,0 km/h
04.12.2018 05:39 20,6 C 10,0 C 9,3 C 67 % 48 % 1013,1 hPa 0,0 l/m 0,0 km/h N 360 8,6 C 0,0 km/h
04.12.2018 05:34 20,6 C 10,0 C 9,3 C 67 % 48 % 1013,1 hPa 0,0 l/m 0,0 km/h N 360 8,6 C 0,0 km/h
04.12.2018 05:29 20,6 C 10,1 C 9,3 C 67 % 48 % 1013,1 hPa 0,0 l/m 0,0 km/h N 360 8,7 C 0,0 km/h
04.12.2018 05:24 20,6 C 10,1 C 9,3 C 67 % 48 % 1013,1 hPa 0,0 l/m 0,0 km/h N 360 8,7 C 0,0 km/h
04.12.2018 05:19 20,6 C 10,0 C 9,3 C 67 % 48 % 1012,9 hPa 0,0 l/m 0,0 km/h N 360 8,6 C 0,0 km/h
04.12.2018 05:14 20,6 C 10,1 C 9,3 C 67 % 48 % 1012,9 hPa 0,0 l/m 0,0 km/h N 360 8,7 C 0,0 km/h
04.12.2018 05:09 20,6 C 10,0 C 9,3 C 67 % 48 % 1012,9 hPa 0,0 l/m 0,0 km/h N 360 8,6 C 0,0 km/h
04.12.2018 05:04 20,6 C 10,1 C 9,3 C 67 % 48 % 1012,9 hPa 0,0 l/m 0,0 km/h N 360 8,7 C 0,0 km/h
04.12.2018 04:59 20,6 C 10,0 C 9,4 C 67 % 48 % 1012,4 hPa 0,7 l/m 0,0 km/h N 360 8,6 C 0,0 km/h
04.12.2018 04:54 20,6 C 10,0 C 9,4 C 67 % 48 % 1012,4 hPa 0,0 l/m 0,0 km/h N 360 8,6 C 0,0 km/h
04.12.2018 04:49 20,6 C 10,1 C 9,5 C 67 % 48 % 1012,4 hPa 0,0 l/m 0,0 km/h N 360 8,7 C 0,0 km/h
04.12.2018 04:44 20,6 C 10,1 C 9,5 C 67 % 48 % 1012,4 hPa 0,7 l/m 0,0 km/h N 360 8,7 C 0,0 km/h
04.12.2018 04:39 20,6 C 10,3 C 9,5 C 67 % 49 % 1012,4 hPa 0,0 l/m 0,0 km/h N 360 8,9 C 0,0 km/h
04.12.2018 04:34 20,6 C 10,3 C 9,5 C 67 % 49 % 1012,4 hPa 0,0 l/m 0,0 km/h N 360 8,7 C 0,0 km/h
04.12.2018 04:29 20,6 C 10,3 C 9,5 C 67 % 49 % 1012,4 hPa 0,0 l/m 0,0 km/h N 360 8,9 C 0,0 km/h
04.12.2018 04:24 20,6 C 10,3 C 9,5 C 67 % 49 % 1012,4 hPa 0,0 l/m 0,0 km/h N 360 8,7 C 0,0 km/h
04.12.2018 04:19 20,7 C 10,3 C 9,5 C 67 % 49 % 1012,2 hPa 0,0 l/m 0,0 km/h N 360 8,9 C 0,0 km/h
04.12.2018 04:14 20,6 C 10,3 C 9,4 C 67 % 49 % 1012,2 hPa 0,0 l/m 0,0 km/h N 360 8,9 C 0,0 km/h
04.12.2018 04:09 20,7 C 10,1 C 9,3 C 67 % 48 % 1012,2 hPa 0,0 l/m 0,0 km/h N 360 8,7 C 0,0 km/h
04.12.2018 04:04 20,7 C 10,1 C 9,3 C 67 % 48 % 1012,2 hPa 0,0 l/m 0,0 km/h N 360 8,7 C 0,0 km/h
04.12.2018 03:59 20,7 C 10,1 C 9,3 C 67 % 48 % 1011,9 hPa 0,0 l/m 0,0 km/h N 360 8,7 C 0,0 km/h
04.12.2018 03:54 20,7 C 10,1 C 9,3 C 67 % 48 % 1011,9 hPa 0,0 l/m 0,0 km/h N 360 8,7 C 0,0 km/h
04.12.2018 03:49 20,7 C 10,1 C 9,3 C 67 % 48 % 1011,9 hPa 0,0 l/m 0,0 km/h N 360 8,7 C 0,0 km/h
04.12.2018 03:44 20,7 C 10,1 C 9,3 C 67 % 48 % 1011,9 hPa 0,0 l/m 0,0 km/h N 360 8,7 C 0,0 km/h
04.12.2018 03:39 20,7 C 10,1 C 9,3 C 67 % 48 % 1011,8 hPa 0,0 l/m 0,0 km/h N 360 8,7 C 0,0 km/h
04.12.2018 03:34 20,7 C 10,1 C 9,4 C 67 % 48 % 1011,8 hPa 0,0 l/m 0,0 km/h N 360 8,7 C 0,0 km/h
04.12.2018 03:29 20,7 C 10,2 C 9,3 C 67 % 49 % 1011,8 hPa 0,0 l/m 0,0 km/h N 360 8,8 C 0,0 km/h
04.12.2018 03:24 20,7 C 10,1 C 9,3 C 67 % 48 % 1011,8 hPa 0,0 l/m 0,0 km/h N 360 8,7 C 0,0 km/h
04.12.2018 03:19 20,7 C 10,1 C 9,3 C 67 % 48 % 1011,9 hPa 0,0 l/m 0,0 km/h N 360 8,7 C 0,0 km/h
04.12.2018 03:14 20,7 C 10,1 C 9,3 C 67 % 48 % 1011,9 hPa 0,0 l/m 0,0 km/h N 360 8,7 C 0,0 km/h
04.12.2018 03:09 20,7 C 10,1 C 9,3 C 67 % 48 % 1011,9 hPa 0,0 l/m 0,0 km/h N 360 8,7 C 0,0 km/h
04.12.2018 03:04 20,7 C 10,1 C 9,3 C 67 % 48 % 1011,9 hPa 0,0 l/m 0,0 km/h N 360 8,7 C 0,0 km/h
04.12.2018 02:59 20,7 C 10,1 C 9,3 C 67 % 48 % 1011,8 hPa 0,0 l/m 0,0 km/h N 360 8,7 C 0,0 km/h
04.12.2018 02:54 20,7 C 10,0 C 9,4 C 67 % 48 % 1011,8 hPa 0,0 l/m 0,0 km/h N 360 8,6 C 0,0 km/h
04.12.2018 02:49 20,8 C 10,1 C 9,3 C 67 % 48 % 1011,8 hPa 0,0 l/m 0,0 km/h N 360 8,7 C 0,0 km/h
04.12.2018 02:44 20,8 C 10,0 C 9,3 C 67 % 48 % 1011,8 hPa 0,0 l/m 0,0 km/h N 360 8,6 C 0,0 km/h
04.12.2018 02:39 20,8 C 10,0 C 9,3 C 67 % 48 % 1011,5 hPa 0,0 l/m 0,0 km/h N 360 8,6 C 0,0 km/h
04.12.2018 02:34 20,8 C 10,0 C 9,3 C 67 % 48 % 1011,5 hPa 0,7 l/m 0,0 km/h N 360 8,6 C 0,0 km/h
04.12.2018 02:29 20,8 C 10,1 C 9,3 C 67 % 48 % 1011,5 hPa 0,0 l/m 0,0 km/h N 360 8,7 C 0,0 km/h
04.12.2018 02:24 20,8 C 10,1 C 9,3 C 67 % 48 % 1011,5 hPa 0,0 l/m 0,0 km/h N 360 8,7 C 0,0 km/h
04.12.2018 02:19 20,8 C 10,1 C 9,3 C 67 % 48 % 1011,3 hPa 0,0 l/m 0,0 km/h N 360 8,7 C 0,0 km/h
04.12.2018 02:14 20,8 C 10,0 C 9,3 C 67 % 48 % 1011,3 hPa 0,0 l/m 0,0 km/h N 360 8,6 C 0,0 km/h
04.12.2018 02:09 20,8 C 10,0 C 9,3 C 67 % 48 % 1011,3 hPa 0,0 l/m 0,0 km/h N 360 8,6 C 0,0 km/h
04.12.2018 02:04 20,8 C 10,0 C 9,3 C 67 % 48 % 1011,3 hPa 0,0 l/m 0,0 km/h N 360 8,6 C 0,0 km/h
04.12.2018 01:59 20,8 C 10,0 C 9,3 C 67 % 48 % 1011,1 hPa 0,0 l/m 0,0 km/h N 360 8,6 C 0,0 km/h
04.12.2018 01:54 20,8 C 10,0 C 9,3 C 67 % 48 % 1011,1 hPa 0,0 l/m 0,0 km/h N 360 8,6 C 0,0 km/h
04.12.2018 01:49 20,8 C 10,1 C 9,4 C 67 % 48 % 1011,1 hPa 0,0 l/m 0,0 km/h N 360 8,7 C 0,0 km/h
04.12.2018 01:44 20,8 C 10,0 C 9,4 C 67 % 48 % 1011,1 hPa 0,0 l/m 0,0 km/h N 360 8,6 C 0,0 km/h
04.12.2018 01:39 20,8 C 10,0 C 9,5 C 67 % 48 % 1010,6 hPa 0,0 l/m 0,0 km/h N 360 8,6 C 0,0 km/h
04.12.2018 01:34 20,8 C 10,0 C 9,5 C 67 % 48 % 1010,6 hPa 0,0 l/m 0,0 km/h N 360 8,6 C 0,0 km/h
04.12.2018 01:29 20,9 C 10,1 C 9,5 C 67 % 48 % 1010,6 hPa 0,0 l/m 0,0 km/h N 360 8,7 C 0,0 km/h
04.12.2018 01:24 20,9 C 10,1 C 9,4 C 67 % 48 % 1010,6 hPa 0,0 l/m 0,0 km/h N 360 8,7 C 0,0 km/h
04.12.2018 01:19 20,9 C 10,2 C 9,5 C 67 % 49 % 1010,9 hPa 0,0 l/m 0,0 km/h N 360 8,8 C 0,0 km/h
04.12.2018 01:14 20,9 C 10,2 C 9,5 C 67 % 49 % 1010,9 hPa 0,0 l/m 0,0 km/h N 360 8,8 C 0,0 km/h
04.12.2018 01:09 20,9 C 10,3 C 9,6 C 67 % 49 % 1010,9 hPa 0,7 l/m 0,0 km/h N 360 8,9 C 0,0 km/h
04.12.2018 01:04 20,9 C 10,3 C 9,6 C 67 % 49 % 1010,9 hPa 0,0 l/m 0,0 km/h N 360 8,9 C 0,0 km/h
04.12.2018 00:59 21,0 C 10,2 C 9,6 C 67 % 49 % 1010,9 hPa 0,0 l/m 0,0 km/h N 360 8,8 C 0,0 km/h
04.12.2018 00:54 21,0 C 10,2 C 9,6 C 67 % 49 % 1010,9 hPa 0,7 l/m 0,0 km/h N 360 8,8 C 0,0 km/h
04.12.2018 00:49 21,0 C 10,3 C 9,6 C 67 % 49 % 1010,9 hPa 0,0 l/m 0,0 km/h N 360 8,9 C 0,0 km/h
04.12.2018 00:44 21,0 C 10,3 C 9,6 C 67 % 49 % 1010,9 hPa 0,7 l/m 0,0 km/h N 360 8,9 C 0,0 km/h
04.12.2018 00:39 21,1 C 10,3 C 9,6 C 67 % 49 % 1010,8 hPa 0,0 l/m 0,0 km/h N 360 8,9 C 0,0 km/h
04.12.2018 00:34 21,1 C 10,3 C 9,6 C 67 % 49 % 1010,8 hPa 0,0 l/m 0,0 km/h N 360 8,9 C 0,0 km/h
04.12.2018 00:29 21,1 C 10,3 C 9,6 C 67 % 49 % 1010,8 hPa 0,0 l/m 0,0 km/h N 360 8,9 C 0,0 km/h
04.12.2018 00:24 21,2 C 10,3 C 9,5 C 67 % 49 % 1010,8 hPa 0,0 l/m 0,0 km/h N 360 8,9 C 0,0 km/h
04.12.2018 00:19 21,2 C 10,2 C 9,7 C 67 % 49 % 1010,6 hPa 0,0 l/m 0,0 km/h N 360 8,8 C 0,0 km/h
04.12.2018 00:14 21,2 C 10,3 C 9,6 C 67 % 49 % 1010,6 hPa 0,0 l/m 0,0 km/h N 360 8,9 C 0,0 km/h
04.12.2018 00:09 21,2 C 10,3 C 9,7 C 67 % 49 % 1010,6 hPa 0,0 l/m 0,0 km/h N 360 8,9 C 0,0 km/h
04.12.2018 00:04 21,2 C 10,3 C 9,7 C 67 % 49 % 1010,6 hPa 0,0 l/m 0,0 km/h N 360 8,9 C 0,0 km/h
_ Min-Zeit 04:14 06:15 06:15 00:04 - 00:04 - 00:04 - - 06:15 00:04
Minimum _ 20,6 C 9,6 C 9,1 C 67 % - 1010,6 hPa - 0,0 km/h - - 8,2 C 0,0 km/h
_ Max-Zeit 00:04 00:04 00:04 00:04 00:04 06:11 05:59 00:04 - - 00:04 00:04
Maximum _ 21,2 C 10,3 C 9,7 C 67 % 49 % 1013,8 hPa 4,1 l/m 0,0 km/h
N
- - 8,9 C 0,0 km/h
N
Durchschnitt _ 20,8 C 10,1 C 9,4 C 67 % #0 min. 1011,8 hPa #13,7 l/m 0,0 km/h N - 8,7 C 0,0 km/h